When you browse on this site, cookies collect data to enhance your experience and personalize the content and advertising you see.
Visit our Privacy Policy to learn more. By continuing to use the site, you agree to this use of cookies and data.
  • în România
  • Lista ţărilor
  • Pe 7 zile
  • Temperatura apei
  • Meteo pe hartă
  • Widget-uri
  • user-avatar
    Intrare

    Meteo pe oră la Cuilapa

    Astăzi, 25 August, Duminică

    Timp Temperatura Precipitaţii Vânt Presiune Umiditate
    00:00 +22°C° 0 mm 1 m/s 685 mmHg 93%
    01:00 +21°C° 0 mm 1 m/s 685 mmHg 93%
    02:00 +20°C° 0 mm 2 m/s 684 mmHg 93%
    03:00 +20°C° 0 mm 2 m/s 684 mmHg 92%
    04:00 +20°C° 0 mm 2 m/s 684 mmHg 92%
    05:00 +20°C° 0 mm 2 m/s 684 mmHg 91%
    06:00 +20°C° 0 mm 1 m/s 685 mmHg 91%
    07:00 +23°C° 0 mm 1 m/s 685 mmHg 82%
    08:00 +26°C° 0 mm 1 m/s 686 mmHg 74%
    09:00 +26°C° 0 mm 0 m/s 687 mmHg 66%
    10:00 +29°C° 0.1 mm 1 m/s 687 mmHg 65%
    11:00 +29°C° 0.1 mm 1 m/s 687 mmHg 64%
    12:00 +30°C° 0.1 mm 2 m/s 686 mmHg 63%
    13:00 +29°C° 0.6 mm 2 m/s 686 mmHg 66%
    14:00 +29°C° 0.6 mm 1 m/s 685 mmHg 69%
    15:00 +29°C° 0.6 mm 1 m/s 684 mmHg 72%
    16:00 +27°C° 0.6 mm 1 m/s 684 mmHg 80%
    17:00 +24°C° 0.6 mm 0 m/s 684 mmHg 87%
    18:00 +22°C° 0.6 mm 0 m/s 684 mmHg 94%
    19:00 +21°C° 0.1 mm 0 m/s 684 mmHg 94%
    20:00 +23°C° 0.1 mm 1 m/s 685 mmHg 94%
    21:00 +22°C° 0.1 mm 1 m/s 685 mmHg 94%
    22:00 +22°C° 0 mm 1 m/s 685 mmHg 93%
    23:00 +21°C° 0 mm 1 m/s 685 mmHg 93%

    Mâine, 26 August, Luni

    Timp Temperatura Precipitaţii Vânt Presiune Umiditate
    00:00 +21°C° 0 mm 1 m/s 685 mmHg 92%
    01:00 +21°C° 0 mm 1 m/s 684 mmHg 91%
    02:00 +20°C° 0 mm 1 m/s 684 mmHg 90%
    03:00 +20°C° 0 mm 1 m/s 684 mmHg 90%
    04:00 +20°C° 0 mm 1 m/s 684 mmHg 89%
    05:00 +20°C° 0 mm 1 m/s 684 mmHg 88%
    06:00 +20°C° 0 mm 1 m/s 684 mmHg 87%
    07:00 +23°C° 0 mm 1 m/s 685 mmHg 80%
    08:00 +25°C° 0 mm 1 m/s 686 mmHg 74%
    09:00 +28°C° 0 mm 1 m/s 686 mmHg 67%
    10:00 +28°C° 0.4 mm 1 m/s 686 mmHg 69%
    11:00 +28°C° 0.4 mm 1 m/s 686 mmHg 70%
    12:00 +29°C° 0.4 mm 1 m/s 685 mmHg 72%
    13:00 +29°C° 0.3 mm 1 m/s 685 mmHg 70%
    14:00 +29°C° 0.3 mm 1 m/s 684 mmHg 67%
    15:00 +30°C° 0.3 mm 1 m/s 684 mmHg 65%
    16:00 +28°C° 0.1 mm 1 m/s 684 mmHg 74%
    17:00 +26°C° 0.1 mm 1 m/s 684 mmHg 82%
    18:00 +25°C° 0.1 mm 1 m/s 683 mmHg 91%
    19:00 +24°C° 0.1 mm 1 m/s 684 mmHg 92%
    20:00 +23°C° 0.1 mm 1 m/s 684 mmHg 92%
    21:00 +23°C° 0.1 mm 1 m/s 685 mmHg 93%
    22:00 +22°C° 0.2 mm 1 m/s 685 mmHg 91%
    23:00 +22°C° 0.2 mm 1 m/s 685 mmHg 90%

    Poimâine, 27 August, Marţi

    Timp Temperatura Precipitaţii Vânt Presiune Umiditate
    00:00 +21°C° 0.2 mm 1 m/s 685 mmHg 88%
    01:00 +21°C° 0.1 mm 1 m/s 684 mmHg 88%
    02:00 +21°C° 0.1 mm 1 m/s 684 mmHg 88%
    03:00 +19°C° 0.1 mm 2 m/s 684 mmHg 88%
    04:00 +20°C° 0 mm 2 m/s 684 mmHg 88%
    05:00 +20°C° 0 mm 2 m/s 684 mmHg 87%
    06:00 +20°C° 0 mm 2 m/s 684 mmHg 87%
    07:00 +23°C° 0 mm 1 m/s 685 mmHg 80%
    08:00 +26°C° 0 mm 1 m/s 685 mmHg 73%
    09:00 +26°C° 0 mm 0 m/s 686 mmHg 66%
    10:00 +29°C° 0 mm 1 m/s 686 mmHg 64%
    11:00 +30°C° 0 mm 1 m/s 686 mmHg 62%
    12:00 +30°C° 0 mm 2 m/s 686 mmHg 59%
    13:00 +30°C° 0.7 mm 1 m/s 685 mmHg 64%
    14:00 +29°C° 0.7 mm 1 m/s 684 mmHg 69%
    15:00 +29°C° 0.7 mm 1 m/s 684 mmHg 74%
    16:00 +27°C° 0.8 mm 1 m/s 684 mmHg 81%
    17:00 +26°C° 0.8 mm 1 m/s 684 mmHg 87%
    18:00 +24°C° 0.8 mm 1 m/s 684 mmHg 94%
    19:00 +24°C° 1.1 mm 1 m/s 684 mmHg 94%
    20:00 +23°C° 1.1 mm 1 m/s 685 mmHg 94%
    21:00 +23°C° 1.1 mm 1 m/s 685 mmHg 93%
    22:00 +22°C° 0.9 mm 1 m/s 685 mmHg 93%
    23:00 +22°C° 0.9 mm 1 m/s 685 mmHg 93%

    28 August, Miercuri

    Timp Temperatura Precipitaţii Vânt Presiune Umiditate
    00:00 +21°C° 0.9 mm 1 m/s 685 mmHg 92%
    01:00 +21°C° 0.1 mm 1 m/s 685 mmHg 92%
    02:00 +20°C° 0.1 mm 2 m/s 685 mmHg 91%
    03:00 +20°C° 0.1 mm 2 m/s 684 mmHg 91%
    04:00 +20°C° 0 mm 2 m/s 685 mmHg 91%
    05:00 +20°C° 0 mm 2 m/s 685 mmHg 90%
    06:00 +20°C° 0 mm 2 m/s 685 mmHg 90%
    07:00 +23°C° 0 mm 1 m/s 686 mmHg 83%
    08:00 +25°C° 0 mm 1 m/s 687 mmHg 76%
    09:00 +26°C° 0 mm 0 m/s 687 mmHg 69%
    10:00 +28°C° 0.1 mm 1 m/s 687 mmHg 67%
    11:00 +29°C° 0.1 mm 1 m/s 687 mmHg 66%
    12:00 +29°C° 0.1 mm 2 m/s 687 mmHg 64%
    13:00 +29°C° 0.5 mm 2 m/s 686 mmHg 67%
    14:00 +29°C° 0.5 mm 1 m/s 686 mmHg 70%
    15:00 +28°C° 0.5 mm 1 m/s 685 mmHg 73%
    16:00 +27°C° 0.6 mm 1 m/s 685 mmHg 79%
    17:00 +23°C° 0.6 mm 0 m/s 685 mmHg 85%
    18:00 +22°C° 0.6 mm 0 m/s 685 mmHg 92%
    19:00 +23°C° 0.3 mm 1 m/s 685 mmHg 92%
    20:00 +22°C° 0.3 mm 1 m/s 685 mmHg 92%
    21:00 +21°C° 0.3 mm 1 m/s 686 mmHg 92%
    22:00 +20°C° 0.1 mm 2 m/s 686 mmHg 92%
    23:00 +20°C° 0.1 mm 2 m/s 686 mmHg 92%

    29 August, Joi

    Timp Temperatura Precipitaţii Vânt Presiune Umiditate
    00:00 +20°C° 0.1 mm 2 m/s 686 mmHg 92%
    01:00 +19°C° 0 mm 2 m/s 685 mmHg 91%
    02:00 +19°C° 0 mm 2 m/s 685 mmHg 91%
    03:00 +19°C° 0 mm 2 m/s 685 mmHg 91%
    04:00 +19°C° 0 mm 2 m/s 685 mmHg 91%
    05:00 +19°C° 0 mm 2 m/s 685 mmHg 91%
    06:00 +19°C° 0 mm 2 m/s 685 mmHg 91%
    07:00 +21°C° 0 mm 2 m/s 686 mmHg 83%
    08:00 +24°C° 0 mm 1 m/s 687 mmHg 74%
    09:00 +27°C° 0 mm 1 m/s 687 mmHg 66%
    10:00 +28°C° 0 mm 1 m/s 687 mmHg 59%
    11:00 +29°C° 0 mm 1 m/s 687 mmHg 51%
    12:00 +31°C° 0 mm 2 m/s 687 mmHg 43%
    13:00 +30°C° 0 mm 2 m/s 686 mmHg 48%
    14:00 +30°C° 0 mm 2 m/s 686 mmHg 52%
    15:00 +29°C° 0 mm 2 m/s 685 mmHg 56%
    16:00 +27°C° 0.4 mm 2 m/s 685 mmHg 67%
    17:00 +26°C° 0.4 mm 1 m/s 685 mmHg 77%
    18:00 +24°C° 0.4 mm 1 m/s 685 mmHg 88%
    19:00 +23°C° 0.4 mm 1 m/s 685 mmHg 87%
    20:00 +22°C° 0.4 mm 1 m/s 686 mmHg 86%
    21:00 +22°C° 0.4 mm 1 m/s 686 mmHg 86%
    22:00 +22°C° 0.1 mm 1 m/s 686 mmHg 85%
    23:00 +22°C° 0.1 mm 1 m/s 686 mmHg 83%

    30 August, Vineri

    Timp Temperatura Precipitaţii Vânt Presiune Umiditate
    00:00 +22°C° 0.1 mm 1 m/s 686 mmHg 82%
    01:00 +21°C° 0 mm 2 m/s 685 mmHg 80%
    02:00 +21°C° 0 mm 2 m/s 685 mmHg 78%
    03:00 +21°C° 0 mm 2 m/s 685 mmHg 77%
    04:00 +20°C° 0 mm 2 m/s 685 mmHg 75%
    05:00 +20°C° 0 mm 2 m/s 685 mmHg 74%
    06:00 +19°C° 0 mm 2 m/s 685 mmHg 73%
    07:00 +23°C° 0 mm 1 m/s 686 mmHg 67%
    08:00 +25°C° 0 mm 1 m/s 686 mmHg 61%
    09:00 +27°C° 0 mm 1 m/s 687 mmHg 55%
    10:00 +28°C° 0 mm 1 m/s 687 mmHg 53%
    11:00 +29°C° 0 mm 1 m/s 687 mmHg 51%
    12:00 +30°C° 0 mm 2 m/s 686 mmHg 49%
    13:00 +29°C° 0.1 mm 2 m/s 686 mmHg 54%
    14:00 +29°C° 0.1 mm 2 m/s 685 mmHg 60%
    15:00 +28°C° 0.1 mm 1 m/s 684 mmHg 65%
    16:00 +27°C° 0.5 mm 1 m/s 684 mmHg 74%
    17:00 +25°C° 0.5 mm 1 m/s 684 mmHg 83%
    18:00 +22°C° 0.5 mm 0 m/s 684 mmHg 92%
    19:00 +23°C° 0.5 mm 1 m/s 685 mmHg 92%
    20:00 +22°C° 0.5 mm 1 m/s 685 mmHg 92%
    21:00 +22°C° 0.5 mm 1 m/s 686 mmHg 92%
    22:00 +21°C° 0.2 mm 1 m/s 686 mmHg 91%
    23:00 +21°C° 0.2 mm 1 m/s 686 mmHg 91%
    Arată mai mult